When you browse on this site, cookies collect data to enhance your experience and personalize the content and advertising you see.
Visit our Privacy Policy to learn more. By continuing to use the site, you agree to this use of cookies and data.
  • In Lithuania
  • List of Countries
  • For 7 days
  • Water Temperature
  • Satellite Maps
  • Weather Map
  • Weather Widgets
  • user-avatar
    Login

    Hourly Weather Edmonton

    Today, 20 March, Wednesday

    Time Temperature Precipitation Wind Pressure Humidity
    00:00 +3°C° 0 mm 1 mps 705 mmHg 71%
    01:00 +3°C° 0 mm 1 mps 705 mmHg 71%
    02:00 +3°C° 0 mm 1 mps 705 mmHg 70%
    03:00 +3°C° 0 mm 1 mps 705 mmHg 69%
    04:00 +2°C° 0 mm 1 mps 705 mmHg 68%
    05:00 +2°C° 0 mm 2 mps 705 mmHg 67%
    06:00 +2°C° 0 mm 2 mps 705 mmHg 67%
    07:00 +2°C° 0 mm 2 mps 705 mmHg 66%
    08:00 +3°C° 0 mm 2 mps 705 mmHg 67%
    09:00 +6°C° 0 mm 1 mps 705 mmHg 69%
    10:00 +7°C° 0 mm 1 mps 704 mmHg 70%
    11:00 +8°C° 0 mm 1 mps 704 mmHg 70%
    12:00 +9°C° 0 mm 1 mps 704 mmHg 69%
    13:00 +9°C° 0 mm 1 mps 704 mmHg 69%
    14:00 +9°C° 0 mm 1 mps 704 mmHg 70%
    15:00 +8°C° 0 mm 1 mps 704 mmHg 71%
    16:00 +8°C° 0 mm 1 mps 703 mmHg 72%
    17:00 +7°C° 0 mm 1 mps 704 mmHg 73%
    18:00 +5°C° 0 mm 0 mps 704 mmHg 74%
    19:00 +4°C° 0 mm 0 mps 704 mmHg 75%
    20:00 +4°C° 0 mm 1 mps 704 mmHg 75%
    21:00 +4°C° 0 mm 1 mps 705 mmHg 76%
    22:00 +3°C° 0 mm 1 mps 705 mmHg 76%
    23:00 +3°C° 0 mm 1 mps 705 mmHg 77%

    Tomorrow, 21 March, Thursday

    Time Temperature Precipitation Wind Pressure Humidity
    00:00 +3°C° 0 mm 1 mps 705 mmHg 78%
    01:00 +2°C° 0 mm 1 mps 705 mmHg 79%
    02:00 +2°C° 0 mm 1 mps 706 mmHg 80%
    03:00 +1°C° 0 mm 1 mps 706 mmHg 81%
    04:00 +1°C° 0 mm 1 mps 706 mmHg 82%
    05:00 -1°C° 0 mm 2 mps 706 mmHg 82%
    06:00 -1°C° 0 mm 2 mps 706 mmHg 81%
    07:00 +1°C° 0 mm 2 mps 706 mmHg 80%
    08:00 +2°C° 0 mm 2 mps 706 mmHg 77%
    09:00 +3°C° 0 mm 2 mps 706 mmHg 74%
    10:00 +4°C° 0 mm 2 mps 705 mmHg 70%
    11:00 +4°C° 0 mm 3 mps 705 mmHg 70%
    12:00 +5°C° 0 mm 3 mps 705 mmHg 70%
    13:00 +5°C° 0 mm 3 mps 704 mmHg 70%
    14:00 +5°C° 0 mm 3 mps 704 mmHg 72%
    15:00 +5°C° 0 mm 4 mps 704 mmHg 74%
    16:00 +5°C° 0 mm 4 mps 703 mmHg 76%
    17:00 +4°C° 0 mm 3 mps 703 mmHg 79%
    18:00 +3°C° 0 mm 3 mps 703 mmHg 81%
    19:00 +2°C° 0 mm 3 mps 703 mmHg 84%
    20:00 +1°C° 0 mm 3 mps 703 mmHg 85%
    21:00 +1°C° 0 mm 3 mps 703 mmHg 86%
    22:00 +1°C° 0 mm 3 mps 702 mmHg 86%
    23:00 +1°C° 0 mm 3 mps 702 mmHg 87%

    Day after tomorrow, 22 March, Friday

    Time Temperature Precipitation Wind Pressure Humidity
    00:00 0°C° 0 mm 3 mps 702 mmHg 87%
    01:00 +1°C° 0 mm 2 mps 701 mmHg 87%
    02:00 +1°C° 0 mm 2 mps 701 mmHg 87%
    03:00 +1°C° 0 mm 2 mps 701 mmHg 88%
    04:00 +1°C° 0 mm 2 mps 700 mmHg 88%
    05:00 +1°C° 0 mm 2 mps 700 mmHg 87%
    06:00 +1°C° 0 mm 2 mps 700 mmHg 87%
    07:00 +2°C° 0 mm 2 mps 700 mmHg 86%
    08:00 +4°C° 0 mm 1 mps 700 mmHg 83%
    09:00 +6°C° 0 mm 1 mps 700 mmHg 80%
    10:00 +7°C° 0 mm 1 mps 700 mmHg 77%
    11:00 +8°C° 0 mm 1 mps 700 mmHg 75%
    12:00 +9°C° 0 mm 1 mps 699 mmHg 72%
    13:00 +10°C° 0 mm 1 mps 699 mmHg 70%
    14:00 +9°C° 0 mm 1 mps 699 mmHg 72%
    15:00 +9°C° 0 mm 1 mps 699 mmHg 74%
    16:00 +8°C° 0 mm 2 mps 699 mmHg 75%
    17:00 +7°C° 0 mm 1 mps 699 mmHg 79%
    18:00 +6°C° 0 mm 1 mps 699 mmHg 83%
    19:00 +5°C° 0 mm 1 mps 699 mmHg 87%
    20:00 +4°C° 0 mm 1 mps 699 mmHg 88%
    21:00 +4°C° 0 mm 1 mps 699 mmHg 89%
    22:00 +4°C° 0 mm 1 mps 699 mmHg 90%
    23:00 +3°C° 0 mm 1 mps 699 mmHg 90%

    23 March, Saturday

    Time Temperature Precipitation Wind Pressure Humidity
    00:00 +3°C° 0 mm 1 mps 699 mmHg 91%
    01:00 +2°C° 0 mm 1 mps 699 mmHg 92%
    02:00 +2°C° 0 mm 1 mps 700 mmHg 93%
    03:00 +2°C° 0 mm 1 mps 700 mmHg 93%
    04:00 +2°C° 0 mm 1 mps 700 mmHg 94%
    05:00 +2°C° 0 mm 1 mps 700 mmHg 93%
    06:00 +2°C° 0 mm 1 mps 701 mmHg 92%
    07:00 +3°C° 0 mm 1 mps 701 mmHg 92%
    08:00 +4°C° 0 mm 1 mps 702 mmHg 87%
    09:00 +4°C° 0 mm 2 mps 702 mmHg 82%
    10:00 +5°C° 0 mm 2 mps 702 mmHg 77%
    11:00 +6°C° 0 mm 2 mps 703 mmHg 77%
    12:00 +5°C° 0 mm 3 mps 703 mmHg 76%
    13:00 +7°C° 0 mm 3 mps 703 mmHg 76%
    14:00 +5°C° 0 mm 3 mps 703 mmHg 78%
    15:00 +5°C° 0 mm 3 mps 703 mmHg 81%
    16:00 +5°C° 0 mm 3 mps 704 mmHg 83%
    17:00 +4°C° 0 mm 3 mps 704 mmHg 85%
    18:00 +4°C° 0 mm 3 mps 705 mmHg 88%
    19:00 +3°C° 0 mm 3 mps 706 mmHg 90%
    20:00 +3°C° 0 mm 3 mps 706 mmHg 89%
    21:00 +3°C° 0 mm 3 mps 707 mmHg 89%
    22:00 +2°C° 0 mm 3 mps 707 mmHg 88%
    23:00 +1°C° 0 mm 3 mps 708 mmHg 89%

    24 March, Sunday

    Time Temperature Precipitation Wind Pressure Humidity
    00:00 +1°C° 0 mm 3 mps 708 mmHg 90%
    01:00 0°C° 0 mm 3 mps 708 mmHg 91%
    02:00 -1°C° 0 mm 3 mps 709 mmHg 90%
    03:00 -1°C° 0 mm 3 mps 709 mmHg 90%
    04:00 -2°C° 0 mm 3 mps 710 mmHg 89%
    05:00 -1°C° 0 mm 3 mps 710 mmHg 86%
    06:00 -1°C° 0 mm 3 mps 711 mmHg 83%
    07:00 -1°C° 0 mm 3 mps 711 mmHg 79%
    08:00 -1°C° 0 mm 3 mps 712 mmHg 76%
    09:00 0°C° 0 mm 3 mps 712 mmHg 73%
    10:00 +1°C° 0 mm 3 mps 712 mmHg 69%
    11:00 +1°C° 0 mm 3 mps 712 mmHg 66%
    12:00 +2°C° 0 mm 3 mps 713 mmHg 63%
    13:00 +3°C° 0 mm 3 mps 713 mmHg 61%
    14:00 +3°C° 0 mm 3 mps 712 mmHg 61%
    15:00 +3°C° 0 mm 3 mps 712 mmHg 60%
    16:00 +3°C° 0 mm 3 mps 712 mmHg 60%
    17:00 +2°C° 0 mm 3 mps 712 mmHg 64%
    18:00 +1°C° 0 mm 3 mps 712 mmHg 68%
    19:00 +1°C° 0 mm 2 mps 712 mmHg 72%
    20:00 0°C° 0 mm 3 mps 712 mmHg 71%
    21:00 0°C° 0 mm 3 mps 712 mmHg 70%
    22:00 -1°C° 0 mm 3 mps 712 mmHg 69%
    23:00 -1°C° 0 mm 3 mps 712 mmHg 71%

    25 March, Monday

    Time Temperature Precipitation Wind Pressure Humidity
    00:00 -1°C° 0 mm 3 mps 712 mmHg 72%
    01:00 -1°C° 0 mm 3 mps 711 mmHg 73%
    02:00 -1°C° 0 mm 3 mps 711 mmHg 72%
    03:00 -1°C° 0 mm 3 mps 711 mmHg 72%
    04:00 -1°C° 0 mm 3 mps 710 mmHg 72%
    05:00 -2°C° 0 mm 4 mps 710 mmHg 69%
    06:00 -2°C° 0 mm 4 mps 710 mmHg 67%
    07:00 -1°C° 0 mm 4 mps 710 mmHg 64%
    08:00 0°C° 0 mm 4 mps 709 mmHg 60%
    09:00 +1°C° 0 mm 4 mps 709 mmHg 55%
    10:00 +3°C° 0 mm 5 mps 709 mmHg 50%
    11:00 +5°C° 0 mm 5 mps 708 mmHg 49%
    12:00 +5°C° 0 mm 5 mps 708 mmHg 47%
    13:00 +6°C° 0 mm 5 mps 707 mmHg 46%
    14:00 +6°C° 0 mm 5 mps 707 mmHg 48%
    15:00 +6°C° 0 mm 5 mps 706 mmHg 49%
    16:00 +6°C° 0 mm 5 mps 706 mmHg 51%
    17:00 +5°C° 0 mm 4 mps 705 mmHg 57%
    18:00 +4°C° 0 mm 4 mps 705 mmHg 63%
    19:00 +2°C° 0 mm 3 mps 705 mmHg 69%
    20:00 +2°C° 0 mm 3 mps 704 mmHg 71%
    21:00 +2°C° 0 mm 3 mps 704 mmHg 72%
    22:00 +1°C° 0 mm 3 mps 704 mmHg 73%
    23:00 +1°C° 0 mm 3 mps 703 mmHg 74%
    Show more